Temp
28 28 27 26 25 25 25 24 23 22 22 21 21 21 21 21 20 20 20 18 18 18 18 18 17 18 20 21 21 21 22 23 23 20 20 17 17 17 17 18 19 19 19
29 27 27 26 26 26 26 24 23 22 22 21 20 20 20 20 20 19 20 19 18 18 18 18 18 19 18 19 19 19 19 19 21 20 18 19 18 18 17 18 18 19 19
29 28 27 26 26 26 25 24 23 22 22 21 20 20 19 18 18 18 18 18 18 18 18 18 18 18 18 18 19 20 20 20 20 21 20 20 19 18 19 19 19 19 21
28 28 27 25 25 25 23 23 23 22 22 21 20 19 19 18 18 18 18 17 17 18 17 17 18 18 18 18 18 18 18 19 19 21 21 20 20 19 20 19 20 20 20
27 26 27 25 24 24 23 23 22 22 20 20 19 19 19 19 18 19 18 16 16 16 17 18 18 17 16 17 19 17 18 20 21 21 21 21 20 19 19 19 20 20 21
25 26 25 25 24 23 23 22 22 21 20 19 19 19 18 18 19 19 19 17 17 17 18 17 16 17 17 17 17 17 16 18 18 20 21 20 19 19 19 18 19 19 20
25 28 25 24 24 23 23 22 21 21 20 19 19 19 19 20 19 18 17 18 18 18 18 17 19 17 17 17 17 17 17 17 17 17 18 18 18 17 16 17 17 17 18
25 24 24 24 24 23 22 22 21 21 20 20 20 19 19 19 18 18 18 18 18 18 17 18 18 17 17 17 18 18 19 18 18 18 18 17 17 16 16 16 16 16 19
25 25 24 24 24 21 21 22 21 21 21 21 20 19 19 18 18 18 18 18 18 17 17 17 18 17 17 17 18 19 19 19 18 17 17 17 16 16 15 16 18 18 19
26 26 25 23 23 22 21 21 20 21 21 21 20 20 19 17 18 18 18 20 18 18 17 17 17 18 17 17 17 18 19 19 19 18 18 17 17 16 16 15 16 17 18
27 26 25 23 22 21 19 18 19 19 19 20 20 19 19 17 17 17 18 20 20 19 19 18 19 17 17 17 17 17 18 17 18 18 20 20 19 19 18 16 15 15 16
26 25 23 22 20 19 18 19 20 21 19 18 18 18 19 18 16 17 17 19 19 20 21 20 19 18 17 17 17 17 17 17 19 20 20 20 19 18 17 16 14 14 14
25 21 21 20 19 18 18 18 17 20 18 18 17 17 19 18 17 17 17 17 18 19 20 20 18 17 17 17 18 17 17 18 19 20 20 19 18 17 15 16 16 15 15
21 20 19 18 17 18 18 18 16 16 16 16 16 17 20 19 19 17 16 16 17 17 18 17 17 17 17 18 17 17 17 19 19 19 19 18 18 18 17 17 16 16 16
20 19 18 18 18 18 18 17 18 20 19 16 16 18 20 20 20 18 16 17 17 18 18 18 18 18 19 19 19 19 19 19 18 19 19 18 18 18 17 17 16 16 16
19 18 18 18 18 18 16 16 16 16 16 16 18 19 20 21 19 17 17 17 17 18 18 19 20 20 20 20 20 20 20 19 19 19 19 18 18 17 17 16 16 16 16
19 18 18 17 17 17 16 15 15 15 16 16 17 19 20 19 18 16 16 17 17 17 18 20 20 20 20 20 20 20 20 20 19 18 19 18 18 17 17 17 16 16 16
19 18 18 18 17 16 16 15 15 14 13 13 15 17 17 17 17 16 16 16 15 16 19 20 20 20 20 20 20 20 20 20 19 19 18 18 17 17 17 16 16 16 15
21 18 18 17 16 16 15 15 14 14 13 14 14 15 16 16 16 16 16 17 19 19 19 20 20 21 21 20 20 20 19 19 19 19 19 18 17 17 17 16 16 15 14
19 18 17 16 15 15 15 14 14 15 16 16 17 16 14 14 14 13 15 18 20 20 20 21 21 21 21 20 20 19 19 19 19 18 18 18 17 17 16 16 15 15 15
17 17 17 16 16 15 15 15 15 17 18 18 18 16 16 18 19 18 18 18 19 21 21 21 21 21 20 20 19 20 20 20 20 19 19 18 17 17 16 15 15 15 14
18 17 16 16 16 16 16 15 16 18 20 21 21 18 17 20 21 20 20 20 20 20 21 21 21 21 21 21 20 20 20 20 20 19 18 18 17 16 16 15 15 14 14
18 17 17 16 16 16 16 17 18 21 22 22 22 18 17 21 22 22 21 21 21 21 21 21 21 21 21 20 20 20 20 20 20 19 18 17 17 16 15 14 14 14 13
18 17 17 16 16 17 21 22 22 22 23 23 23 20 20 21 22 22 22 22 22 22 22 21 21 21 21 20 20 20 19 19 18 18 16 16 16 16 15 14 14 13 13
17 16 16 16 16 21 22 23 23 23 23 23 23 22 21 22 22 22 22 22 22 22 22 21 21 21 20 20 20 20 19 18 17 16 16 15 15 14 14 13 13 13 13
16 16 16 17 20 23 23 24 23 23 23 23 23 22 22 22 23 23 22 22 22 22 22 22 21 21 21 20 20 19 18 17 17 16 15 15 14 14 14 13 13 13 13
Height
782 785 790 794 796 799 803 807 810 812 817 820 822 825 831 834 834 835 834 836 838 840 841 841 842 843 842 842 841 841 840 838 838 845 846 847 846 845 843 841 839 837 835
776 781 784 788 792 795 797 801 805 808 813 818 821 824 828 832 834 835 834 836 838 841 842 843 844 845 845 844 845 844 844 844 843 846 847 846 848 847 845 843 840 838 837
772 777 780 783 787 791 796 799 802 806 809 815 820 823 826 828 831 834 835 832 838 841 843 845 845 846 846 846 846 846 846 846 845 845 846 847 847 847 845 842 840 838 835
767 771 775 780 784 787 792 797 801 802 808 813 819 822 825 828 830 833 835 832 838 842 844 846 847 848 848 847 847 847 848 848 847 845 845 846 846 846 845 843 839 837 836
765 771 776 779 784 786 792 796 800 800 805 810 816 821 825 827 829 831 834 836 837 842 844 846 847 848 848 848 848 848 848 848 847 846 846 845 847 847 845 843 840 837 834
758 759 763 772 777 785 788 794 797 799 802 808 813 819 823 825 827 830 832 837 840 843 845 847 848 849 850 850 849 850 851 851 850 848 846 848 849 848 846 845 840 839 834
750 746 749 766 773 779 787 791 795 798 802 805 809 814 820 823 827 832 836 839 843 845 846 847 848 849 850 850 850 849 850 852 852 852 852 850 849 849 847 845 843 841 837
747 753 757 760 766 774 782 788 793 797 800 806 810 815 818 822 825 830 836 841 843 846 846 847 848 850 851 851 851 852 851 850 851 851 851 851 850 848 847 844 841 839 833
743 748 751 757 765 769 781 791 797 799 802 808 809 812 817 820 825 829 835 841 843 846 848 850 850 850 850 851 852 852 851 851 849 849 849 849 847 845 843 842 838 836 831
744 745 750 755 762 773 781 787 793 802 805 809 812 814 816 817 821 826 833 838 842 844 847 849 850 851 850 851 853 853 850 850 850 848 848 846 845 843 842 841 839 835 832
742 745 748 750 759 766 770 775 783 795 806 811 814 816 817 818 819 824 829 835 838 842 844 845 846 848 849 849 850 852 852 851 850 848 845 843 842 841 840 839 839 837 833
738 740 744 749 754 757 761 766 771 766 783 811 816 819 817 817 819 822 826 832 836 837 840 842 844 846 848 848 847 848 848 847 847 845 843 841 840 840 839 838 836 835 832
736 736 735 742 748 751 757 762 765 762 770 781 806 817 814 814 817 819 824 831 835 836 838 840 841 844 845 847 846 845 846 846 843 841 840 840 840 839 837 835 833 831 827
735 736 738 738 744 748 755 760 763 763 770 768 777 803 808 810 813 816 822 827 831 832 836 840 842 844 844 843 843 842 843 843 841 840 840 839 838 836 833 831 829 827 823
730 733 735 738 742 744 747 750 754 757 756 763 771 777 788 798 802 807 813 821 826 829 836 838 840 842 841 840 839 839 839 839 839 839 839 837 835 833 830 828 826 823 820
727 730 732 734 738 739 743 748 754 758 759 766 767 771 774 786 795 803 811 818 823 827 834 834 835 835 836 835 836 834 835 835 835 835 836 834 832 830 828 826 823 820 817
726 726 728 731 733 737 740 747 750 756 761 768 770 777 780 773 790 800 809 814 820 825 829 829 831 830 830 832 832 832 831 830 832 833 832 831 830 828 826 823 820 817 813
726 728 729 730 731 734 740 742 745 748 756 763 770 776 779 779 789 798 805 811 817 822 825 824 825 825 826 827 829 828 828 828 828 829 828 828 827 825 822 820 817 814 811
724 725 728 727 728 731 736 740 742 748 757 755 769 774 778 784 790 798 804 808 812 818 821 820 821 819 821 823 825 826 826 825 825 825 823 823 822 820 818 816 814 812 810
722 724 726 727 728 729 732 736 739 747 752 759 760 770 775 782 789 794 799 804 808 811 814 814 816 816 818 821 822 821 821 822 822 821 820 818 818 817 815 813 811 809 806
721 722 723 725 727 730 733 737 739 745 749 754 757 765 771 778 784 791 797 801 804 806 808 808 809 812 815 818 819 817 817 817 815 815 815 815 814 813 812 810 808 806 803
718 719 722 725 728 731 735 738 741 743 746 749 755 764 772 777 781 785 791 794 797 802 803 805 806 808 810 812 813 812 812 812 810 810 811 812 811 810 809 807 804 802 801
716 718 722 725 727 731 735 738 740 741 743 748 754 764 769 772 775 779 784 789 793 796 799 801 804 805 806 807 808 809 809 808 807 807 808 808 807 806 806 804 802 800 798
712 714 718 722 726 728 729 732 736 739 741 747 752 758 765 769 770 776 780 785 787 791 794 797 800 801 801 803 804 804 805 805 806 806 806 805 805 804 803 801 799 797 795
706 711 715 719 722 721 724 727 732 738 742 745 749 755 762 766 770 773 777 780 783 786 789 792 794 796 797 797 799 799 800 801 801 802 802 803 802 802 800 799 797 794 792
704 707 714 717 717 717 721 725 730 736 740 745 749 753 757 762 766 769 773 777 778 781 784 785 787 790 791 793 794 795 796 796 796 797 799 799 799 798 797 795 793 791 789
Wind_Speed
24 23 21 21 22 21 19 17 15 15 16 17 20 20 14 12 9 8 8 7 7 7 7 7 7 5 5 5 5 4 5 3 6 5 6 7 8 8 8 9 9 9 10
25 23 23 23 22 22 23 21 18 18 17 17 18 20 16 12 10 9 10 9 10 9 9 8 8 7 7 7 8 8 7 5 8 5 4 5 6 6 8 8 9 8 7
24 24 25 24 23 21 20 19 19 19 19 17 18 18 16 16 13 11 11 14 11 11 9 8 8 7 7 8 7 6 7 6 5 6 6 6 5 9 8 8 8 8 7
25 25 25 24 23 22 21 20 21 20 19 18 17 16 16 15 13 12 13 16 13 11 10 9 8 7 7 7 7 7 6 7 6 6 6 5 6 5 8 10 10 10 8
20 19 19 20 19 21 19 20 20 20 19 18 17 16 16 16 15 16 15 17 16 14 11 10 9 8 9 6 7 8 6 5 6 7 6 7 10 10 11 12 11 12 9
22 23 22 20 21 22 22 22 21 20 19 18 20 18 17 17 17 16 16 16 13 13 13 10 10 10 10 10 10 8 6 6 7 6 6 5 8 10 12 13 12 13 12
26 30 26 20 21 22 23 24 21 21 21 23 21 20 20 17 16 16 17 13 14 13 12 13 11 10 9 7 5 4 3 2 1 1 4 6 7 9 11 12 11 11 12
23 17 18 19 20 21 24 25 23 22 23 22 21 18 20 16 21 19 20 14 13 13 13 12 11 10 7 5 3 2 1 1 1 3 3 4 5 7 8 10 11 11 14
25 20 21 21 21 22 22 22 20 20 19 19 19 20 20 17 22 23 21 16 15 13 12 10 9 9 7 4 2 1 0 0 3 2 1 3 7 7 8 9 11 13 14
23 25 24 21 20 22 22 20 18 13 14 14 15 18 20 18 26 26 21 16 16 14 12 10 12 8 7 3 1 1 2 2 2 1 3 7 7 7 10 8 11 13 13
17 20 23 25 29 29 32 32 27 10 3 7 13 17 19 18 27 28 25 17 17 15 14 13 11 11 8 6 5 5 5 4 3 4 6 7 8 9 9 9 9 10 13
14 14 18 25 30 39 41 38 37 36 23 4 10 16 18 18 23 30 28 19 17 16 12 10 9 11 11 8 5 9 8 6 6 7 9 11 11 12 12 10 9 11 11
14 17 28 35 40 41 37 40 35 39 28 21 20 19 20 20 21 29 29 22 18 12 10 9 11 13 10 8 8 9 7 7 7 7 9 11 12 11 11 11 12 13 15
15 22 27 33 36 38 35 32 22 27 32 42 40 30 23 23 23 24 25 25 20 15 10 10 12 11 10 8 8 7 7 8 7 8 10 10 12 13 13 13 14 16 18
19 23 26 25 31 30 28 28 31 36 42 33 34 36 29 28 27 29 31 26 20 17 14 13 13 13 12 10 9 7 7 7 7 8 10 11 13 14 14 14 15 17 18
17 19 22 23 25 23 21 22 27 29 38 40 44 36 36 28 29 31 31 26 21 19 17 14 15 14 13 11 9 7 7 7 8 8 10 12 14 14 14 16 15 17 18
14 18 20 19 20 19 21 22 21 19 25 26 23 29 28 33 32 33 31 28 24 20 18 15 14 13 12 12 10 9 9 7 5 10 11 12 13 14 14 16 17 17 18
7 17 19 22 23 21 22 21 19 23 19 21 18 24 22 23 32 33 33 26 20 20 20 15 14 13 12 11 11 11 9 9 10 10 11 11 12 13 15 16 17 17 19
7 9 16 11 14 21 20 21 24 24 22 26 21 20 21 24 26 31 29 23 21 22 21 17 15 12 11 10 10 10 11 12 12 12 12 12 12 13 15 16 18 17 16
3 6 9 9 13 17 18 20 21 20 23 24 27 22 26 24 24 26 28 23 21 20 19 17 15 13 10 9 10 10 12 13 13 13 12 12 12 13 15 16 18 18 18
6 8 8 9 13 12 15 17 22 23 25 24 24 26 28 27 25 26 26 24 21 19 18 17 15 11 10 10 11 11 12 14 14 12 13 12 12 13 13 15 17 17 17
12 13 13 12 12 12 14 17 19 21 22 22 22 24 30 25 25 24 23 21 21 20 19 16 13 12 11 11 11 11 12 13 13 12 12 12 12 13 13 15 17 16 17
16 18 15 15 16 18 21 21 20 19 20 21 22 24 30 24 22 20 20 20 21 21 17 14 13 13 13 12 12 11 12 13 13 12 12 12 12 12 12 15 15 16 15
20 22 17 16 20 23 21 20 20 20 20 21 21 22 27 25 18 21 21 20 19 18 16 15 15 15 14 12 11 11 11 10 9 11 11 11 11 10 12 14 14 14 15
22 20 19 19 22 22 21 19 18 18 19 19 18 20 23 23 21 22 20 19 18 16 17 17 16 15 13 13 12 10 11 13 10 11 9 9 9 9 10 12 12 14 14
18 18 17 22 23 21 21 19 19 19 19 18 18 19 21 23 23 21 19 18 17 18 19 18 16 14 12 12 12 11 13 12 12 12 10 9 9 9 10 11 12 13 13
Wind_Direction
200 203 204 201 203 201 203 206 198 187 184 186 185 174 184 186 178 163 139 128 115 108 100 101 86 73 77 66 60 61 60 45 101 98 69 47 43 44 33 31 31 29 22
204 200 200 202 198 199 202 196 191 182 181 186 181 182 179 181 177 169 143 136 127 124 118 107 96 82 78 73 69 64 65 56 104 102 58 73 42 23 19 18 16 13 19
201 203 203 204 200 201 201 193 185 181 178 182 184 185 182 177 167 167 161 133 136 133 125 116 106 98 89 84 74 74 79 83 88 89 92 61 54 29 26 25 24 15 3
201 207 207 207 198 191 197 188 185 176 177 181 188 184 179 175 167 171 158 135 139 136 131 126 118 114 112 98 90 86 85 99 105 100 83 77 45 35 21 15 1 1 350
196 215 220 209 206 197 191 192 185 175 179 176 174 178 180 177 173 169 162 148 148 138 136 139 128 139 138 127 94 86 97 84 83 76 63 56 36 14 16 356 349 351 346
192 206 207 207 204 203 190 193 186 176 171 170 171 176 182 175 179 177 166 157 153 158 155 138 128 120 117 109 101 104 98 83 57 25 48 36 26 4 1 349 339 346 335
203 211 185 194 199 201 200 193 186 177 170 173 172 175 180 173 192 180 161 166 167 170 160 153 151 150 135 128 109 104 91 74 81 22 356 5 349 345 336 332 340 325 319
209 220 200 197 200 195 195 191 184 180 174 179 176 177 174 175 182 178 167 173 174 172 165 161 158 153 153 154 155 142 109 141 256 289 308 318 320 317 318 317 301 295 307
217 215 205 200 195 185 186 191 185 174 172 185 179 176 176 180 184 178 167 175 173 170 170 173 168 165 182 178 186 122 67 127 297 312 184 324 338 345 345 335 338 321 323
217 213 208 195 189 186 181 173 160 170 177 186 183 180 179 180 181 178 169 177 177 177 182 186 182 189 207 215 247 267 261 45 321 253 284 327 344 324 342 338 329 323 322
222 215 209 186 178 172 155 145 143 98 139 196 186 186 186 182 182 182 175 188 185 191 194 197 204 206 214 224 245 262 274 291 276 284 305 331 335 334 328 324 310 311 318
224 214 190 174 164 159 156 158 164 159 153 279 229 198 189 183 190 188 186 186 195 192 205 206 208 211 211 230 238 245 258 266 266 303 322 339 334 329 328 319 305 306 306
226 184 178 174 164 161 160 166 165 165 162 160 200 223 196 188 191 193 193 194 194 190 205 209 197 202 211 240 255 245 259 248 266 297 322 326 329 322 315 313 311 308 304
198 189 172 167 167 167 168 176 175 158 158 166 177 204 204 194 188 188 191 195 197 195 204 204 193 201 217 234 248 245 237 254 271 297 307 315 320 321 320 320 316 318 318
194 186 181 179 177 178 181 185 188 184 178 182 184 174 183 197 192 185 185 188 193 195 194 194 202 216 224 223 224 238 245 247 258 277 294 310 320 322 320 319 316 313 312
190 192 192 190 190 185 169 167 183 189 189 193 189 182 184 186 186 189 180 181 186 189 193 202 212 217 225 230 237 244 244 245 264 275 295 306 316 317 316 317 311 313 314
188 190 196 186 181 176 171 173 168 179 193 203 204 196 187 176 184 180 186 182 187 188 208 212 220 219 223 230 239 251 267 286 274 275 291 301 307 308 308 315 316 315 316
188 198 194 195 197 181 183 174 174 172 164 168 171 183 183 171 178 186 183 178 178 195 214 222 220 223 223 227 239 254 271 279 270 273 288 294 300 305 309 313 316 316 319
254 203 216 190 176 183 180 175 168 166 175 155 167 172 169 175 181 183 183 183 192 205 215 225 227 222 221 227 243 264 274 274 274 277 281 287 295 303 307 312 316 313 310
200 204 194 176 182 180 173 167 163 174 171 171 159 164 168 164 170 180 186 194 203 210 216 218 219 217 225 241 258 264 268 264 257 263 271 284 297 301 305 312 315 315 312
179 189 173 149 158 156 153 164 171 172 169 166 161 166 173 175 176 182 190 199 210 215 218 210 205 209 227 244 257 261 265 264 271 270 280 288 294 299 303 309 313 311 311
203 195 196 190 181 167 172 170 169 170 169 166 166 170 177 180 181 184 193 202 208 214 205 203 210 221 237 252 257 267 271 271 279 281 278 283 289 295 302 311 313 313 313
198 200 189 185 195 179 181 176 186 184 173 172 170 169 179 190 187 191 194 200 198 197 202 208 221 234 243 251 250 260 265 280 289 283 278 282 288 294 305 311 311 311 311
204 197 181 178 177 185 183 172 178 181 176 177 171 168 176 190 191 191 191 192 192 198 205 217 230 241 251 246 249 253 260 270 279 277 263 275 286 291 303 311 308 309 308
195 181 178 180 182 189 171 172 172 178 178 176 175 174 184 191 197 192 197 197 201 209 219 229 235 242 238 229 249 258 265 267 263 254 248 263 278 288 301 307 307 308 309
180 176 175 173 184 174 172 174 171 175 179 179 184 186 189 194 194 196 200 207 216 229 237 234 232 231 229 231 236 243 254 266 272 250 231 248 267 284 301 305 305 308 307